Satellite: AUBIESAT Catalog number: 37854 Epoch time: 13169.14868451 Element set: 525 Inclination: 101.7178 deg RA of node: 024.0978 deg Eccentricity: 0.0234925 Arg of perigee: 023.4187 deg Mean anomaly: 092.5580 deg Mean motion: 14.84410882 rev/day Decay rate: 3.514e-05 rev/day^2 Epoch rev: 8860 Checksum: 313
Satellite: HRBE Catalog number: 37855 Epoch time: 13168.59834808 Element set: 524 Inclination: 101.7180 deg RA of node: 023.0523 deg Eccentricity: 0.0236000 Arg of perigee: 025.4653 deg Mean anomaly: 008.3435 deg Mean motion: 14.84068183 rev/day Decay rate: 3.743e-05 rev/day^2 Epoch rev: 8851 Checksum: 285
Satellite: RS-39 Catalog number: 38051 Epoch time: 13169.36930036 Element set: 546 Inclination: 051.6355 deg RA of node: 204.8706 deg Eccentricity: 0.0010979 Arg of perigee: 273.8308 deg Mean anomaly: 178.9834 deg Mean motion: 15.32746256 rev/day Decay rate: 8.743e-05 rev/day^2 Epoch rev: 7796 Checksum: 344
Satellite: E-STAR Catalog number: 38079 Epoch time: 13170.74731714 Element set: 221 Inclination: 069.4733 deg RA of node: 176.5716 deg Eccentricity: 0.0608527 Arg of perigee: 133.9125 deg Mean anomaly: 231.4465 deg Mean motion: 14.47120442 rev/day Decay rate: 3.9161e-04 rev/day^2 Epoch rev: 7011 Checksum: 286
Satellite: GOLIAT Catalog number: 38085 Epoch time: 13169.31926069 Element set: 135 Inclination: 069.4728 deg RA of node: 182.1776 deg Eccentricity: 0.0619821 Arg of perigee: 136.9218 deg Mean anomaly: 310.9943 deg Mean motion: 14.44870749 rev/day Decay rate: 3.2607e-04 rev/day^2 Epoch rev: 6984 Checksum: 343
Satellite: HORYU-2 Catalog number: 38340 Epoch time: 13168.85179995 Element set: 529 Inclination: 098.2146 deg RA of node: 116.5096 deg Eccentricity: 0.0011393 Arg of perigee: 251.5651 deg Mean anomaly: 108.4315 deg Mean motion: 14.70962564 rev/day Decay rate: 7.63e-06 rev/day^2 Epoch rev: 5821 Checksum: 316
Satellite: RS-40 Catalog number: 38736 Epoch time: 13168.39468096 Element set: 299 Inclination: 082.4770 deg RA of node: 154.9948 deg Eccentricity: 0.0020913 Arg of perigee: 330.1476 deg Mean anomaly: 029.8412 deg Mean motion: 12.42868585 rev/day Decay rate: 1.0e-07 rev/day^2 Epoch rev: 4027 Checksum: 322
Satellite: PROITERES Catalog number: 38756 Epoch time: 13169.40456695 Element set: 882 Inclination: 098.2527 deg RA of node: 246.4715 deg Eccentricity: 0.0013902 Arg of perigee: 101.0932 deg Mean anomaly: 259.1844 deg Mean motion: 14.74236108 rev/day Decay rate: 3.81e-06 rev/day^2 Epoch rev: 4157 Checksum: 306
Satellite: RAIKO Catalog number: 38852 Epoch time: 13171.80601006 Element set: 264 Inclination: 051.6367 deg RA of node: 069.5456 deg Eccentricity: 0.0007566 Arg of perigee: 048.6971 deg Mean anomaly: 311.5208 deg Mean motion: 15.81756712 rev/day Decay rate: 1.84063e-03 rev/day^2 Epoch rev: 4044 Checksum: 297
Satellite: FITSAT 1 Catalog number: 38853 Epoch time: 13171.72614886 Element set: 272 Inclination: 051.6388 deg RA of node: 062.9625 deg Eccentricity: 0.0001868 Arg of perigee: 128.0296 deg Mean anomaly: 232.0604 deg Mean motion: 16.00074145 rev/day Decay rate: 4.84620e-03 rev/day^2 Epoch rev: 4057 Checksum: 297
Satellite: TechEdSat Catalog number: 38854 Epoch time: 13124.93253577 Element set: 290 Inclination: 051.6449 deg RA of node: 297.0261 deg Eccentricity: 0.0010505 Arg of perigee: 310.8629 deg Mean anomaly: 049.0629 deg Mean motion: 16.38844728 rev/day Decay rate: 1.1592855e-01 rev/day^2 Epoch rev: 3329 Checksum: 325
Satellite: F 1 Catalog number: 38855 Epoch time: 13129.77714356 Element set: 287 Inclination: 051.5085 deg RA of node: 272.4145 deg Eccentricity: 0.0008326 Arg of perigee: 194.2908 deg Mean anomaly: 166.5495 deg Mean motion: 16.49710473 rev/day Decay rate: 2.7424026e-01 rev/day^2 Epoch rev: 3394 Checksum: 332
Satellite: WeWish Catalog number: 38856 Epoch time: 13069.98095549 Element set: 248 Inclination: 051.6166 deg RA of node: 215.0521 deg Eccentricity: 0.0008325 Arg of perigee: 316.0438 deg Mean anomaly: 044.8765 deg Mean motion: 16.41348316 rev/day Decay rate: 1.6701328e-01 rev/day^2 Epoch rev: 2458 Checksum: 318
Satellite: OSSI-1 Catalog number: 39131 Epoch time: 13166.46692943 Element set: 4 Inclination: 064.8771 deg RA of node: 194.8097 deg Eccentricity: 0.0130860 Arg of perigee: 024.8474 deg Mean anomaly: 329.0319 deg Mean motion: 15.87140892 rev/day Decay rate: 4.69165e-03 rev/day^2 Epoch rev: 887 Checksum: 333
Satellite: BEESAT-3 Catalog number: 39134 Epoch time: 13169.87824958 Element set: 155 Inclination: 064.8798 deg RA of node: 203.2713 deg Eccentricity: 0.0013398 Arg of perigee: 204.0706 deg Mean anomaly: 156.0315 deg Mean motion: 15.00337632 rev/day Decay rate: 2.085e-05 rev/day^2 Epoch rev: 908 Checksum: 300
Satellite: BEESAT-2 Catalog number: 39136 Epoch time: 13169.87826419 Element set: 151 Inclination: 064.8804 deg RA of node: 203.2717 deg Eccentricity: 0.0013615 Arg of perigee: 203.6641 deg Mean anomaly: 156.4385 deg Mean motion: 15.00311172 rev/day Decay rate: 1.930e-05 rev/day^2 Epoch rev: 908 Checksum: 278
/EX